| time (UTC) | temp C | wind direction | speed KPH | gust KPH | rain 1hr cm | rain 24hr cm | rain mn cm | humidity % | barometer mb |
| 20260504210702 | 25 | 212 | 19.3 | 33.8 | 0.00 | 0.05 | 0.03 | 38 | 1004.3 |
| 20260504210602 | 25 | 216 | 19.3 | 33.8 | 0.00 | 0.05 | 0.03 | 37 | 1004.3 |
| 20260504210502 | 25 | 204 | 12.9 | 25.7 | 0.00 | 0.05 | 0.03 | 38 | 1004.4 |
| 20260504210403 | 25 | 203 | 8.0 | 20.9 | 0.00 | 0.05 | 0.03 | 38 | 1004.4 |
| 20260504210300 | 25 | 217 | 11.3 | 16.1 | 0.00 | 0.05 | 0.03 | 38 | 1004.4 |
| 20260504210203 | 25 | 210 | 12.9 | 22.5 | 0.00 | 0.05 | 0.03 | 38 | 1004.4 |
| 20260504210101 | 25 | 219 | 8.0 | 24.1 | 0.00 | 0.05 | 0.03 | 38 | 1004.5 |
| 20260504210001 | 25 | 217 | 9.7 | 12.9 | 0.00 | 0.05 | 0.03 | 38 | 1004.5 |
| 20260504205901 | 25 | 231 | 9.7 | 20.9 | 0.00 | 0.05 | 0.03 | 38 | 1004.5 |
| 20260504205802 | 25 | 211 | 12.9 | 27.4 | 0.00 | 0.05 | 0.03 | 38 | 1004.5 |
| 20260504205700 | 25 | 220 | 14.5 | 24.1 | 0.00 | 0.05 | 0.03 | 38 | 1004.6 |
| 20260504205601 | 25 | 215 | 9.7 | 27.4 | 0.00 | 0.05 | 0.03 | 39 | 1004.5 |
| 20260504205504 | 25 | 198 | 11.3 | 19.3 | 0.00 | 0.05 | 0.03 | 38 | 1004.6 |
| 20260504205400 | 25 | 223 | 12.9 | 22.5 | 0.00 | 0.05 | 0.03 | 40 | 1004.5 |
| 20260504205212 | 25 | 191 | 4.8 | 14.5 | 0.00 | 0.05 | 0.03 | 43 | 1004.6 |
| 20260504205202 | 25 | 191 | 8.0 | 16.1 | 0.00 | 0.05 | 0.03 | 42 | 1004.6 |
| 20260504205102 | 25 | 191 | 4.8 | 14.5 | 0.00 | 0.05 | 0.03 | 43 | 1004.6 |
| 20260504205002 | 25 | 227 | 4.8 | 11.3 | 0.00 | 0.05 | 0.03 | 44 | 1004.6 |
| 20260504204902 | 25 | 191 | 3.2 | 9.7 | 0.00 | 0.05 | 0.03 | 45 | 1004.6 |
| 20260504193701 | 23 | 255 | 0.0 | 3.2 | 0.00 | 0.05 | 0.03 | 46 | 1005.8 |
| 20260504193602 | 23 | 276 | 3.2 | 4.8 | 0.00 | 0.05 | 0.03 | 46 | 1005.9 |
| 20260504193502 | 23 | 248 | 4.8 | 14.5 | 0.00 | 0.05 | 0.03 | 45 | 1005.9 |
| 20260504193403 | 23 | 248 | 4.8 | 14.5 | 0.00 | 0.05 | 0.03 | 45 | 1005.9 |
| 20260504193302 | 23 | 236 | 8.0 | 16.1 | 0.00 | 0.05 | 0.03 | 46 | 1005.9 |
| 20260504193204 | 23 | 225 | 4.8 | 9.7 | 0.00 | 0.05 | 0.03 | 46 | 1006.0 |
| 20260504193102 | 23 | 225 | 4.8 | 9.7 | 0.00 | 0.05 | 0.03 | 46 | 1006.0 |
| 20260504173101 | 20 | 199 | 8.0 | 14.5 | 0.00 | 0.05 | 0.03 | 57 | 1006.3 |
| 20260504173001 | 20 | 169 | 4.8 | 9.7 | 0.00 | 0.05 | 0.03 | 57 | 1006.3 |
| 20260504172901 | 20 | 200 | 4.8 | 14.5 | 0.00 | 0.05 | 0.03 | 57 | 1006.4 |
| 20260504172803 | 20 | 186 | 4.8 | 8.0 | 0.00 | 0.05 | 0.03 | 57 | 1006.4 |
| 20260504172703 | 20 | 198 | 3.2 | 11.3 | 0.00 | 0.05 | 0.03 | 57 | 1006.4 |
| 20260504172601 | 20 | 218 | 4.8 | 8.0 | 0.00 | 0.05 | 0.03 | 57 | 1006.3 |
| 20260504172502 | 20 | 205 | 3.2 | 12.9 | 0.00 | 0.05 | 0.03 | 57 | 1006.2 |
| 20260504172401 | 20 | 95 | 1.6 | 1.6 | 0.00 | 0.05 | 0.03 | 56 | 1006.1 |